Time,TemperatureF,DewpointF,PressureIn,WindDirection,WindDirectionDegrees,WindSpeedMPH,WindSpeedGustMPH,Humidity,HourlyPrecipIn,Conditions,Clouds,dailyrainin,SoftwareType,DateUTC
2013-05-05 00:02:00,38.4,33.0,30.32,East,79,0.0,0.0,82,0.00,,,0.00,weatherlink.com 1.10,2013-05-05 04:02:00,
2013-05-05 00:17:00,37.7,33.0,30.31,East,79,0.0,0.0,82,0.00,,,0.00,weatherlink.com 1.10,2013-05-05 04:17:00,
2013-05-05 00:32:00,37.1,32.0,30.31,East,79,0.0,0.0,83,0.00,,,0.00,weatherlink.com 1.10,2013-05-05 04:32:00,
2013-05-05 00:48:00,36.6,33.0,30.31,East,79,0.0,0.0,85,0.00,,,0.00,weatherlink.com 1.10,2013-05-05 04:48:00,
2013-05-05 01:04:00,36.2,32.0,30.31,East,79,0.0,0.0,86,0.00,,,0.00,weatherlink.com 1.10,2013-05-05 05:04:00,
2013-05-05 01:18:00,35.7,32.0,30.31,East,79,0.0,0.0,87,0.00,,,0.00,weatherlink.com 1.10,2013-05-05 05:18:00,
2013-05-05 01:34:00,35.3,32.0,30.31,East,79,0.0,0.0,88,0.00,,,0.00,weatherlink.com 1.10,2013-05-05 05:34:00,
2013-05-05 01:48:00,35.0,32.0,30.30,East,79,0.0,0.0,88,0.00,,,0.00,weatherlink.com 1.10,2013-05-05 05:48:00,
2013-05-05 02:04:00,34.6,31.0,30.30,East,79,0.0,0.0,88,0.00,,,0.00,weatherlink.com 1.10,2013-05-05 06:04:00,
2013-05-05 02:19:00,34.1,31.0,30.30,East,79,0.0,0.0,89,0.00,,,0.00,weatherlink.com 1.10,2013-05-05 06:19:00,
2013-05-05 02:34:00,33.8,31.0,30.29,East,79,0.0,0.0,89,0.00,,,0.00,weatherlink.com 1.10,2013-05-05 06:34:00,
2013-05-05 02:49:00,33.5,31.0,30.29,East,79,0.0,0.0,90,0.00,,,0.00,weatherlink.com 1.10,2013-05-05 06:49:00,
2013-05-05 03:04:00,33.2,31.0,30.29,East,79,0.0,0.0,90,0.00,,,0.00,weatherlink.com 1.10,2013-05-05 07:04:00,
2013-05-05 03:19:00,33.0,30.0,30.29,East,79,0.0,0.0,90,0.00,,,0.00,weatherlink.com 1.10,2013-05-05 07:19:00,
2013-05-05 03:34:00,32.8,30.0,30.29,East,79,0.0,0.0,90,0.00,,,0.00,weatherlink.com 1.10,2013-05-05 07:34:00,
2013-05-05 03:49:00,32.5,30.0,30.30,East,79,0.0,0.0,90,0.00,,,0.00,weatherlink.com 1.10,2013-05-05 07:49:00,
2013-05-05 04:05:00,32.3,30.0,30.29,East,79,0.0,0.0,91,0.00,,,0.00,weatherlink.com 1.10,2013-05-05 08:05:00,
2013-05-05 04:20:00,32.1,30.0,30.29,East,79,0.0,0.0,91,0.00,,,0.00,weatherlink.com 1.10,2013-05-05 08:20:00,
2013-05-05 04:35:00,32.1,30.0,30.29,East,79,0.0,0.0,92,0.00,,,0.00,weatherlink.com 1.10,2013-05-05 08:35:00,
2013-05-05 04:50:00,32.7,31.0,30.29,East,79,0.0,0.0,93,0.00,,,0.00,weatherlink.com 1.10,2013-05-05 08:50:00,
2013-05-05 05:05:00,32.9,31.0,30.29,ENE,57,0.0,0.0,93,0.00,,,0.00,weatherlink.com 1.10,2013-05-05 09:05:00,
2013-05-05 05:20:00,32.7,31.0,30.29,ENE,57,0.0,0.0,92,0.00,,,0.00,weatherlink.com 1.10,2013-05-05 09:20:00,
2013-05-05 05:36:00,32.4,31.0,30.29,ENE,57,0.0,0.0,93,0.00,,,0.00,weatherlink.com 1.10,2013-05-05 09:36:00,
2013-05-05 05:50:00,32.5,31.0,30.29,ENE,57,0.0,0.0,93,0.00,,,0.00,weatherlink.com 1.10,2013-05-05 09:50:00,
2013-05-05 06:06:00,32.6,31.0,30.29,ENE,57,0.0,0.0,93,0.00,,,0.00,weatherlink.com 1.10,2013-05-05 10:06:00,
2013-05-05 06:21:00,32.6,31.0,30.29,ENE,57,0.0,0.0,93,0.00,,,0.00,weatherlink.com 1.10,2013-05-05 10:21:00,
2013-05-05 06:36:00,32.5,31.0,30.29,ENE,57,0.0,0.0,93,0.00,,,0.00,weatherlink.com 1.10,2013-05-05 10:36:00,
2013-05-05 06:51:00,33.8,33.0,30.29,ENE,57,0.0,0.0,95,0.00,,,0.00,weatherlink.com 1.10,2013-05-05 10:51:00,
2013-05-05 07:06:00,34.7,33.0,30.30,NNE,30,0.0,0.0,94,0.00,,,0.00,weatherlink.com 1.10,2013-05-05 11:06:00,
2013-05-05 07:21:00,35.3,34.0,30.30,NNE,30,0.0,0.0,94,0.00,,,0.00,weatherlink.com 1.10,2013-05-05 11:21:00,
2013-05-05 07:37:00,36.5,35.0,30.30,NNE,30,0.0,0.0,93,0.00,,,0.00,weatherlink.com 1.10,2013-05-05 11:37:00,
2013-05-05 07:52:00,38.5,36.0,30.29,NNE,30,0.0,1.0,91,0.00,,,0.00,weatherlink.com 1.10,2013-05-05 11:52:00,
2013-05-05 08:07:00,40.2,37.0,30.30,NNE,30,0.0,0.0,88,0.00,,,0.00,weatherlink.com 1.10,2013-05-05 12:07:00,
2013-05-05 08:22:00,42.3,38.0,30.30,NNE,30,0.0,0.0,83,0.00,,,0.00,weatherlink.com 1.10,2013-05-05 12:22:00,
2013-05-05 08:38:00,44.5,38.0,30.30,NW,314,0.0,1.0,78,0.00,,,0.00,weatherlink.com 1.10,2013-05-05 12:38:00,
2013-05-05 08:52:00,46.7,38.0,30.29,WNW,302,0.0,1.0,72,0.00,,,0.00,weatherlink.com 1.10,2013-05-05 12:52:00,
2013-05-05 09:08:00,48.8,40.0,30.29,East,81,1.0,2.0,71,0.00,,,0.00,weatherlink.com 1.10,2013-05-05 13:08:00,
2013-05-05 09:24:00,51.2,40.0,30.28,North,360,0.0,4.0,65,0.00,,,0.00,weatherlink.com 1.10,2013-05-05 13:24:00,
2013-05-05 09:38:00,53.2,40.0,30.28,North,5,1.0,4.0,61,0.00,,,0.00,weatherlink.com 1.10,2013-05-05 13:38:00,
2013-05-05 09:54:00,55.2,38.0,30.27,North,355,3.0,6.0,53,0.00,,,0.00,weatherlink.com 1.10,2013-05-05 13:54:00,
2013-05-05 10:09:00,56.5,37.0,30.27,North,5,0.0,3.0,49,0.00,,,0.00,weatherlink.com 1.10,2013-05-05 14:09:00,
2013-05-05 10:24:00,58.2,38.0,30.27,SE,135,1.0,4.0,47,0.00,,,0.00,weatherlink.com 1.10,2013-05-05 14:24:00,
2013-05-05 10:39:00,59.2,35.0,30.26,SSW,194,0.0,5.0,41,0.00,,,0.00,weatherlink.com 1.10,2013-05-05 14:39:00,
2013-05-05 10:54:00,59.8,34.0,30.26,NE,37,3.0,4.0,38,0.00,,,0.00,weatherlink.com 1.10,2013-05-05 14:54:00,
2013-05-05 11:09:00,60.5,36.0,30.26,North,11,2.0,6.0,40,0.00,,,0.00,weatherlink.com 1.10,2013-05-05 15:09:00,
2013-05-05 11:24:00,62.8,36.0,30.25,NNW,337,0.0,7.0,37,0.00,,,0.00,weatherlink.com 1.10,2013-05-05 15:24:00,
2013-05-05 11:40:00,63.6,36.0,30.24,SSW,205,4.0,6.0,36,0.00,,,0.00,weatherlink.com 1.10,2013-05-05 15:40:00,
2013-05-05 11:55:00,64.6,37.0,30.24,NNE,30,0.0,3.0,36,0.00,,,0.00,weatherlink.com 1.10,2013-05-05 15:55:00,
2013-05-05 12:10:00,65.2,37.0,30.23,North,360,1.0,6.0,35,0.00,,,0.00,weatherlink.com 1.10,2013-05-05 16:10:00,
2013-05-05 12:25:00,66.2,36.0,30.23,WNW,294,0.0,2.0,33,0.00,,,0.00,weatherlink.com 1.10,2013-05-05 16:25:00,
2013-05-05 12:40:00,67.6,37.0,30.22,NE,56,0.0,5.0,33,0.00,,,0.00,weatherlink.com 1.10,2013-05-05 16:40:00,
2013-05-05 12:56:00,68.5,36.0,30.22,East,81,0.0,4.0,30,0.00,,,0.00,weatherlink.com 1.10,2013-05-05 16:56:00,
2013-05-05 13:11:00,68.9,36.0,30.21,ENE,61,2.0,4.0,30,0.00,,,0.00,weatherlink.com 1.10,2013-05-05 17:11:00,
2013-05-05 13:26:00,69.6,37.0,30.21,NE,45,0.0,7.0,30,0.00,,,0.00,weatherlink.com 1.10,2013-05-05 17:26:00,
2013-05-05 13:41:00,70.6,37.0,30.21,SW,215,1.0,4.0,29,0.00,,,0.00,weatherlink.com 1.10,2013-05-05 17:41:00,
2013-05-05 13:56:00,71.4,35.0,30.21,ENE,57,1.0,4.0,26,0.00,,,0.00,weatherlink.com 1.10,2013-05-05 17:56:00,
2013-05-05 14:11:00,71.2,34.0,30.20,North,355,4.0,5.0,26,0.00,,,0.00,weatherlink.com 1.10,2013-05-05 18:11:00,
2013-05-05 14:27:00,72.4,37.0,30.20,NE,40,0.0,4.0,28,0.00,,,0.00,weatherlink.com 1.10,2013-05-05 18:27:00,
2013-05-05 14:42:00,72.1,35.0,30.19,North,5,0.0,4.0,26,0.00,,,0.00,weatherlink.com 1.10,2013-05-05 18:42:00,
2013-05-05 14:58:00,72.1,35.0,30.19,SSW,213,2.0,7.0,26,0.00,,,0.00,weatherlink.com 1.10,2013-05-05 18:58:00,
2013-05-05 15:12:00,73.1,33.0,30.18,NW,317,0.0,3.0,23,0.00,,,0.00,weatherlink.com 1.10,2013-05-05 19:12:00,
2013-05-05 15:27:00,74.2,37.0,30.18,NW,317,1.0,5.0,26,0.00,,,0.00,weatherlink.com 1.10,2013-05-05 19:27:00,
2013-05-05 15:46:00,74.4,37.0,30.18,WSW,244,0.0,4.0,26,0.00,,,0.00,weatherlink.com 1.10,2013-05-05 19:46:00,
2013-05-05 15:58:00,74.6,36.0,30.17,North,360,1.0,5.0,25,0.00,,,0.00,weatherlink.com 1.10,2013-05-05 19:58:00,
2013-05-05 16:14:00,73.5,33.0,30.17,West,263,0.0,5.0,23,0.00,,,0.00,weatherlink.com 1.10,2013-05-05 20:14:00,
2013-05-05 16:28:00,73.7,35.0,30.17,East,87,0.0,3.0,24,0.00,,,0.00,weatherlink.com 1.10,2013-05-05 20:28:00,
2013-05-05 16:44:00,74.0,36.0,30.17,ENE,71,0.0,2.0,25,0.00,,,0.00,weatherlink.com 1.10,2013-05-05 20:44:00,
2013-05-05 16:59:00,73.2,37.0,30.17,ENE,74,0.0,5.0,27,0.00,,,0.00,weatherlink.com 1.10,2013-05-05 20:59:00,
2013-05-05 17:14:00,72.6,39.0,30.17,ESE,115,0.0,2.0,29,0.00,,,0.00,weatherlink.com 1.10,2013-05-05 21:14:00,
2013-05-05 17:28:00,71.2,40.0,30.17,East,94,1.0,3.0,32,0.00,,,0.00,weatherlink.com 1.10,2013-05-05 21:28:00,
2013-05-05 17:45:00,70.1,40.0,30.17,SE,124,0.0,5.0,33,0.00,,,0.00,weatherlink.com 1.10,2013-05-05 21:45:00,
2013-05-05 18:59:00,63.8,39.0,30.19,SSE,150,0.0,1.0,41,0.00,,,0.00,weatherlink.com 1.10,2013-05-05 22:59:00,
2013-05-05 19:14:00,62.3,39.0,30.19,SSE,154,0.0,0.0,43,0.00,,,0.00,weatherlink.com 1.10,2013-05-05 23:14:00,
2013-05-05 19:29:00,60.9,39.0,30.20,South,180,0.0,1.0,44,0.00,,,0.00,weatherlink.com 1.10,2013-05-05 23:29:00,
2013-05-05 19:44:00,59.6,39.0,30.20,South,180,0.0,0.0,47,0.00,,,0.00,weatherlink.com 1.10,2013-05-05 23:44:00,
2013-05-05 20:01:00,57.8,39.0,30.20,South,180,0.0,0.0,50,0.00,,,0.00,weatherlink.com 1.10,2013-05-06 00:01:00,
2013-05-05 20:15:00,56.3,39.0,30.21,South,180,0.0,0.0,53,0.00,,,0.00,weatherlink.com 1.10,2013-05-06 00:15:00,
2013-05-05 20:30:00,54.9,39.0,30.21,South,180,0.0,0.0,56,0.00,,,0.00,weatherlink.com 1.10,2013-05-06 00:30:00,
2013-05-05 20:45:00,53.7,39.0,30.21,South,180,0.0,0.0,59,0.00,,,0.00,weatherlink.com 1.10,2013-05-06 00:45:00,
2013-05-05 21:05:00,52.4,39.0,30.22,South,180,0.0,0.0,61,0.00,,,0.00,weatherlink.com 1.10,2013-05-06 01:05:00,
2013-05-05 21:20:00,51.8,39.0,30.22,South,179,0.0,0.0,63,0.00,,,0.00,weatherlink.com 1.10,2013-05-06 01:20:00,
2013-05-05 21:35:00,50.8,39.0,30.22,South,179,0.0,0.0,64,0.00,,,0.00,weatherlink.com 1.10,2013-05-06 01:35:00,
2013-05-05 21:51:00,49.8,39.0,30.22,South,179,0.0,0.0,66,0.00,,,0.00,weatherlink.com 1.10,2013-05-06 01:51:00,
2013-05-05 22:05:00,49.0,39.0,30.22,South,179,0.0,0.0,68,0.00,,,0.00,weatherlink.com 1.10,2013-05-06 02:05:00,
2013-05-05 22:20:00,48.3,39.0,30.23,South,180,0.0,0.0,69,0.00,,,0.00,weatherlink.com 1.10,2013-05-06 02:20:00,
2013-05-05 22:35:00,47.8,39.0,30.22,South,180,0.0,0.0,71,0.00,,,0.00,weatherlink.com 1.10,2013-05-06 02:35:00,
2013-05-05 22:50:00,46.7,39.0,30.22,South,179,0.0,0.0,74,0.00,,,0.00,weatherlink.com 1.10,2013-05-06 02:50:00,
2013-05-05 23:06:00,45.8,39.0,30.22,South,179,0.0,0.0,76,0.00,,,0.00,weatherlink.com 1.10,2013-05-06 03:06:00,
2013-05-05 23:21:00,44.9,38.0,30.22,South,179,0.0,0.0,78,0.00,,,0.00,weatherlink.com 1.10,2013-05-06 03:21:00,
2013-05-05 23:36:00,44.1,38.0,30.22,South,180,0.0,0.0,79,0.00,,,0.00,weatherlink.com 1.10,2013-05-06 03:36:00,
2013-05-05 23:51:00,43.3,38.0,30.22,South,179,0.0,0.0,81,0.00,,,0.00,weatherlink.com 1.10,2013-05-06 03:51:00,